Weather in Vostok

Russia / Primorsky Krai     46°26′50″N   135°49′32″E
temp.,
°C
wind,
m/s
gust,
m/s
humid.,
%
clouds,
%
prec.,
mm/h
press.,
hPa
HPBL,
m
22 january, sat
sat2201:00−27s2210070 0.0 103422
04:00−28sse229961 0.0 103424
07:00−28sse229959 0.0 103423
10:00−22s129623 0.0 103366
13:00−15wnw128584 0.0 1031495
16:00−14nw2286100 0.0 1029489
19:00−22s1110099 0.0 103110
22:00−25sse2210096 0.1 103214
23 january, sun
sun2301:00−26sse2210083 0.0 103217
04:00−27sse2210073 0.0 103216
07:00−28sse229960 0.0 103117
10:00−22s119612 0.0 102962
13:00−15wnw128681 0.0 1027481
16:00−14nw2286100 0.0 1026540
19:00−22ssw1110099 0.1 102810
22:00−24s22100100 0.1 102919
24 january, mon
mon2401:00−26s2210092 0.0 102926
04:00−26s229997 0.1 103030
07:00−27s229967 0.0 103030
10:00−22s229617 0.0 102983
13:00−14w1286100 0.0 1027539
16:00−13w1284100 0.0 1025578
19:00−20s2210098 0.1 102813
22:00−23s229978 0.1 102824
25 january, tue
tue2501:00−24sse229958 0.0 102826
04:00−25sse229959 0.0 102818
07:00−26sse219946 0.0 102715
10:00−19se119582 0.0 102565
13:00−12n118897 0.0 1023316
16:00−12nnw119197 0.0 1021265
19:00−17se1199100 0.0 10239
22:00−18sse2199100 0.1 102312
26 january, wed
wed2601:00−18sse1198100 0.0 102312
04:00−19sse1198100 0.0 102312
07:00−19s119899 0.0 102312
10:00−15wnw019599 0.0 102290
13:00−11nw1289100 0.0 1021531
16:00−12nw2291100 0.3 1021538
19:00−16wsw119980 0.1 102310
22:00−19ssw1110088 0.2 102512